Location: Black Swamp Observatory
(41.3920°N, 84.1250°W)
Time: 12:18:35
(UTC-05:00)

ISS - Pass Details

Date: 05 December 2021
Orbit: 413 x 422 km, 51.6° (Epoch: 19 January)

Event Time Altitude Azimuth Distance (km) Brightness Sun altitude
Rises 18:52:10 0° 305° (NW) 2,381 0.7 -19.1°
Reaches altitude 10° 18:54:17 10° 304° (NW) 1,511 -0.4 -19.5°
Maximum altitude 18:57:40 83° 217° (SW) 428 -3.8 -20.1°
Enters shadow 18:57:50 79° 163° (SSE) 433 -3.8 -20.2°
